EN

Hourly Weather Dziechlino

Today, 26 October, Monday

Time Temperature Precipitation Wind Pressure Humidity
00:00 +10°C° 0 mm 5 mps 747 mmHg 85%
01:00 +10°C° 0 mm 5 mps 747 mmHg 85%
02:00 +10°C° 0 mm 5 mps 746 mmHg 86%
03:00 +10°C° 0 mm 5 mps 746 mmHg 87%
04:00 +9°C° 0 mm 5 mps 746 mmHg 88%
05:00 +10°C° 0 mm 4 mps 746 mmHg 90%
06:00 +8°C° 0 mm 4 mps 746 mmHg 92%
07:00 +8°C° 0 mm 4 mps 746 mmHg 93%
08:00 +10°C° 0 mm 4 mps 746 mmHg 89%
09:00 +11°C° 0 mm 4 mps 746 mmHg 86%
10:00 +12°C° 0 mm 3 mps 745 mmHg 82%
11:00 +13°C° 0 mm 3 mps 745 mmHg 79%
12:00 +13°C° 0 mm 3 mps 745 mmHg 77%
13:00 +14°C° 0 mm 4 mps 745 mmHg 75%
14:00 +13°C° 0 mm 3 mps 745 mmHg 77%
15:00 +13°C° 0 mm 3 mps 744 mmHg 80%
16:00 +13°C° 0 mm 3 mps 744 mmHg 82%
17:00 +12°C° 0 mm 3 mps 744 mmHg 83%
18:00 +12°C° 0 mm 3 mps 745 mmHg 84%
19:00 +13°C° 0 mm 2 mps 745 mmHg 86%
20:00 +12°C° 0.2 mm 3 mps 745 mmHg 86%
21:00 +12°C° 0.2 mm 3 mps 745 mmHg 87%
22:00 +12°C° 0.2 mm 3 mps 745 mmHg 87%
23:00 +12°C° 0.1 mm 3 mps 745 mmHg 89%

Tomorrow, 27 October, Tuesday

Time Temperature Precipitation Wind Pressure Humidity
00:00 +12°C° 0.1 mm 2 mps 745 mmHg 91%
01:00 +12°C° 0.1 mm 2 mps 745 mmHg 93%
02:00 +12°C° 0 mm 2 mps 746 mmHg 93%
03:00 +12°C° 0 mm 2 mps 746 mmHg 93%
04:00 +12°C° 0 mm 2 mps 746 mmHg 93%
05:00 +11°C° 0 mm 1 mps 746 mmHg 93%
06:00 +11°C° 0 mm 1 mps 746 mmHg 94%
07:00 +11°C° 0 mm 1 mps 747 mmHg 94%
08:00 +11°C° 0 mm 1 mps 747 mmHg 90%
09:00 +12°C° 0 mm 1 mps 747 mmHg 87%
10:00 +11°C° 0 mm 0 mps 747 mmHg 83%
11:00 +12°C° 0 mm 1 mps 747 mmHg 83%
12:00 +13°C° 0 mm 1 mps 747 mmHg 84%
13:00 +13°C° 0 mm 1 mps 747 mmHg 84%
14:00 +12°C° 0.8 mm 1 mps 747 mmHg 87%
15:00 +12°C° 0.8 mm 1 mps 747 mmHg 90%
16:00 +12°C° 0.8 mm 1 mps 747 mmHg 94%
17:00 +10°C° 1.2 mm 2 mps 747 mmHg 93%
18:00 +10°C° 1.2 mm 2 mps 747 mmHg 92%
19:00 +10°C° 1.2 mm 3 mps 747 mmHg 91%
20:00 +10°C° 0.3 mm 3 mps 747 mmHg 90%
21:00 +9°C° 0.3 mm 3 mps 747 mmHg 89%
22:00 +9°C° 0.3 mm 3 mps 748 mmHg 88%
23:00 +9°C° 0 mm 3 mps 748 mmHg 89%

Day after tomorrow, 28 October, Wednesday

Time Temperature Precipitation Wind Pressure Humidity
00:00 +9°C° 0 mm 3 mps 748 mmHg 89%
01:00 +8°C° 0 mm 3 mps 748 mmHg 90%
02:00 +8°C° 0 mm 3 mps 748 mmHg 90%
03:00 +7°C° 0 mm 4 mps 748 mmHg 91%
04:00 +7°C° 0 mm 4 mps 748 mmHg 91%
05:00 +6°C° 0 mm 4 mps 749 mmHg 90%
06:00 +6°C° 0 mm 4 mps 749 mmHg 90%
07:00 +6°C° 0 mm 4 mps 749 mmHg 89%
08:00 +7°C° 0 mm 5 mps 749 mmHg 83%
09:00 +8°C° 0 mm 6 mps 749 mmHg 77%
10:00 +9°C° 0 mm 6 mps 749 mmHg 71%
11:00 +10°C° 0 mm 6 mps 749 mmHg 67%
12:00 +11°C° 0 mm 6 mps 749 mmHg 63%
13:00 +13°C° 0 mm 6 mps 749 mmHg 60%
14:00 +11°C° 0 mm 6 mps 748 mmHg 63%
15:00 +12°C° 0 mm 5 mps 748 mmHg 66%
16:00 +11°C° 0 mm 4 mps 748 mmHg 68%
17:00 +11°C° 0 mm 4 mps 748 mmHg 70%
18:00 +10°C° 0 mm 4 mps 748 mmHg 72%
19:00 +10°C° 0 mm 4 mps 748 mmHg 74%
20:00 +9°C° 0 mm 5 mps 748 mmHg 74%
21:00 +9°C° 0 mm 5 mps 748 mmHg 74%
22:00 +9°C° 0 mm 5 mps 748 mmHg 75%
23:00 +8°C° 0 mm 5 mps 748 mmHg 77%

29 October, Thursday

Time Temperature Precipitation Wind Pressure Humidity
00:00 +8°C° 0 mm 5 mps 748 mmHg 80%
01:00 +7°C° 0 mm 5 mps 748 mmHg 83%
02:00 +7°C° 0 mm 5 mps 748 mmHg 83%
03:00 +7°C° 0 mm 5 mps 748 mmHg 83%
04:00 +7°C° 0 mm 5 mps 748 mmHg 83%
05:00 +7°C° 0 mm 5 mps 748 mmHg 83%
06:00 +7°C° 0 mm 5 mps 748 mmHg 84%
07:00 +7°C° 0 mm 5 mps 748 mmHg 84%
08:00 +7°C° 0.1 mm 5 mps 748 mmHg 85%
09:00 +8°C° 0.1 mm 5 mps 748 mmHg 85%
10:00 +8°C° 0.1 mm 5 mps 748 mmHg 85%
11:00 +8°C° 0.5 mm 5 mps 748 mmHg 83%
12:00 +9°C° 0.5 mm 5 mps 748 mmHg 82%
13:00 +9°C° 0.5 mm 6 mps 748 mmHg 80%
14:00 +9°C° 0.1 mm 5 mps 749 mmHg 78%
15:00 +9°C° 0.1 mm 5 mps 749 mmHg 77%
16:00 +10°C° 0.1 mm 4 mps 749 mmHg 76%
17:00 +8°C° 0 mm 4 mps 750 mmHg 77%
18:00 +8°C° 0 mm 4 mps 750 mmHg 79%
19:00 +8°C° 0 mm 5 mps 750 mmHg 81%
20:00 +8°C° 0 mm 5 mps 750 mmHg 81%
21:00 +7°C° 0 mm 5 mps 751 mmHg 82%
22:00 +7°C° 0 mm 5 mps 751 mmHg 82%
23:00 +7°C° 0 mm 5 mps 751 mmHg 82%

30 October, Friday

Time Temperature Precipitation Wind Pressure Humidity
00:00 +7°C° 0 mm 5 mps 751 mmHg 82%
01:00 +7°C° 0 mm 6 mps 750 mmHg 82%
02:00 +8°C° 0 mm 6 mps 750 mmHg 81%
03:00 +8°C° 0 mm 7 mps 750 mmHg 80%
04:00 +8°C° 0 mm 7 mps 749 mmHg 79%
05:00 +9°C° 0.2 mm 7 mps 749 mmHg 82%
06:00 +9°C° 0.2 mm 7 mps 749 mmHg 84%
07:00 +9°C° 0.2 mm 8 mps 749 mmHg 86%
08:00 +10°C° 0 mm 7 mps 749 mmHg 86%
09:00 +11°C° 0 mm 7 mps 750 mmHg 85%
10:00 +11°C° 0 mm 7 mps 750 mmHg 85%
11:00 +11°C° 0.1 mm 7 mps 750 mmHg 84%
12:00 +12°C° 0.1 mm 7 mps 750 mmHg 84%
13:00 +12°C° 0.1 mm 7 mps 750 mmHg 83%
14:00 +12°C° 0.1 mm 7 mps 750 mmHg 84%
15:00 +12°C° 0.1 mm 7 mps 751 mmHg 84%
16:00 +13°C° 0.1 mm 6 mps 751 mmHg 85%
17:00 +13°C° 0 mm 6 mps 751 mmHg 83%
18:00 +13°C° 0 mm 6 mps 751 mmHg 82%
19:00 +13°C° 0 mm 6 mps 751 mmHg 80%
20:00 +13°C° 0 mm 6 mps 752 mmHg 80%
21:00 +13°C° 0 mm 6 mps 752 mmHg 80%
22:00 +13°C° 0 mm 5 mps 752 mmHg 80%
23:00 +12°C° 0 mm 5 mps 752 mmHg 81%

31 October, Saturday

Time Temperature Precipitation Wind Pressure Humidity
00:00 +12°C° 0 mm 5 mps 752 mmHg 82%
01:00 +12°C° 0 mm 5 mps 752 mmHg 82%
02:00 +11°C° 0 mm 4 mps 752 mmHg 85%
03:00 +11°C° 0 mm 4 mps 752 mmHg 87%
04:00 +10°C° 0 mm 4 mps 753 mmHg 89%
05:00 +10°C° 0 mm 4 mps 753 mmHg 90%
06:00 +10°C° 0 mm 4 mps 753 mmHg 91%
07:00 +8°C° 0 mm 4 mps 753 mmHg 91%
Show more